This demonstration page uses our WeatherBlox Daily Observations layout. Learn more.

Left ArrowRight Arrow

Hourly Observations for July 19, 2018

Temp ( °F °C ) Dew Point ( °F °C ) Humidity (%) Winds ( mph kmh ) Pressure ( in mb ) Visibility ( mi km ) Precip ( " mm )
12:17 am 00:17 Partly Cloudy 64 18 63 17 94 94 N N/A 30.03 1017 10 16.0934 N/A
12:36 am 00:36 Mostly Cloudy 64 18 63 17 94 94 N N/A 30.06 1018 10 16.0934 N/A
12:56 am 00:56 Partly Cloudy 64 18 63 17 94 94 N N/A 30.06 1018 10 16.0934 N/A
1:17 am 01:17 Partly Cloudy 63 17 63 17 100 100 N N/A 30.06 1018 10 16.0934 N/A
1:36 am 01:36 Mostly Cloudy 63 17 63 17 100 100 N N/A 30.06 1018 10 16.0934 N/A
1:56 am 01:56 Partly Cloudy 61 16 61 16 100 100 E 3 6 30.06 1018 10 16.0934 N/A
2:17 am 02:17 Clear 61 16 61 16 100 100 N N/A 30.03 1017 10 16.0934 N/A
2:36 am 02:36 Clear 63 17 63 17 100 100 E 5 7 30.03 1017 10 16.0934 N/A
2:57 am 02:57 Clear 63 17 63 17 100 100 N N/A 30.03 1017 10 16.0934 N/A
3:16 am 03:16 Clear 63 17 63 17 100 100 N N/A 30.03 1017 10 16.0934 N/A
3:36 am 03:36 Clear 63 17 61 16 94 94 N N/A 30.03 1017 10 16.0934 N/A
3:57 am 03:57 Clear 63 17 61 16 94 94 N N/A 30.03 1017 10 16.0934 N/A
4:16 am 04:16 Clear 63 17 61 16 94 94 E 3 6 30.03 1017 10 16.0934 N/A
4:37 am 04:37 Clear 63 17 61 16 94 94 N N/A 30.03 1017 10 16.0934 N/A
4:56 am 04:56 Clear 63 17 61 16 94 94 N N/A 30.03 1017 10 16.0934 N/A
5:16 am 05:16 Clear 63 17 61 16 94 94 N N/A 30.03 1017 10 16.0934 N/A
5:37 am 05:37 Clear 61 16 61 16 100 100 E 3 6 30.03 1017 10 16.0934 N/A
5:56 am 05:56 Clear 61 16 61 16 100 100 N N/A 30.03 1017 10 16.0934 N/A
6:17 am 06:17 Clear 61 16 61 16 100 100 ESE 5 7 30.03 1017 10 16.0934 N/A
6:37 am 06:37 Sunny 61 16 61 16 100 100 SE 3 6 30.03 1017 10 16.0934 N/A
6:57 am 06:57 Sunny 61 16 61 16 100 100 ESE 3 6 30.03 1017 10 16.0934 N/A
7:17 am 07:17 Sunny 61 16 61 16 100 100 ESE 3 6 30.03 1017 10 16.0934 N/A
7:36 am 07:36 Sunny 63 17 63 17 100 100 ESE 5 7 30.03 1017 10 16.0934 N/A
7:57 am 07:57 Sunny 64 18 63 17 94 94 ESE 5 7 30.03 1017 10 16.0934 N/A
8:16 am 08:16 Sunny 66 19 64 18 94 94 ESE 6 9 30.03 1017 10 16.0934 N/A
8:36 am 08:36 Sunny 68 20 64 18 88 88 ESE 7 11 30.03 1017 10 16.0934 N/A
8:57 am 08:57 Sunny 70 21 64 18 83 83 SE 6 9 30.06 1018 10 16.0934 N/A
9:16 am 09:16 Sunny 70 21 66 19 88 88 SSE 6 9 30.06 1018 10 16.0934 N/A
9:37 am 09:37 Sunny 72 22 64 18 78 78 SSE 7 11 30.03 1017 10 16.0934 N/A
9:57 am 09:57 Sunny 73 23 66 19 78 78 SE 5 7 30.03 1017 10 16.0934 N/A
10:16 am 10:16 Sunny 75 24 66 19 74 74 SE 5 7 30.03 1017 10 16.0934 N/A
10:37 am 10:37 Sunny 75 24 68 20 78 78 SSE 7 11 30.03 1017 10 16.0934 N/A
10:56 am 10:56 Sunny 77 25 66 19 69 69 SE 9 15 30 1016 10 16.0934 N/A
11:16 am 11:16 Sunny 75 24 66 19 74 74 SE 8 13 30 1016 10 16.0934 N/A
11:37 am 11:37 Sunny 75 24 66 19 74 74 SSE 8 13 30 1016 10 16.0934 N/A
11:56 am 11:56 Sunny 79 26 68 20 70 70 SSE 9 15 30 1016 10 16.0934 N/A
12:17 pm 12:17 Sunny 77 25 66 19 69 69 SE 8 13 30 1016 10 16.0934 N/A
12:36 pm 12:36 Sunny 77 25 66 19 69 69 SE 10 17 30 1016 10 16.0934 N/A
12:56 pm 12:56 Sunny 79 26 66 19 65 65 SE 10 17 30 1016 10 16.0934 N/A
1:17 pm 13:17 Sunny 79 26 66 19 65 65 SE 13 20 30 1016 10 16.0934 N/A
1:36 pm 13:36 Partly Cloudy 81 27 68 20 66 66 ESE 9 15 30 1016 10 16.0934 N/A
1:56 pm 13:56 Partly Cloudy 81 27 68 20 66 66 SE 9 15 30 1016 10 16.0934 N/A
2:17 pm 14:17 Partly Cloudy 81 27 68 20 66 66 SE 10 17 30 1016 10 16.0934 N/A
2:36 pm 14:36 Partly Cloudy 81 27 68 20 66 66 ESE 8 13 29.97 1015 10 16.0934 N/A
2:56 pm 14:56 Partly Cloudy 82 28 66 19 58 58 SSE 9 15 29.97 1015 10 16.0934 N/A
3:17 pm 15:17 Sunny 82 28 68 20 62 62 SSE 8 13 29.97 1015 10 16.0934 N/A
3:36 pm 15:36 Sunny 82 28 68 20 62 62 SSE 8 13 29.97 1015 10 16.0934 N/A
3:57 pm 15:57 Sunny 81 27 68 20 66 66 SE 8 13 29.97 1015 10 16.0934 N/A
4:16 pm 16:16 Sunny 82 28 68 20 62 62 SE 6 9 29.97 1015 10 16.0934 N/A
4:37 pm 16:37 Sunny 82 28 68 20 62 62 SSE 7 11 29.97 1015 10 16.0934 N/A
4:56 pm 16:56 Sunny 82 28 68 20 62 62 SSE 8 13 29.94 1014 10 16.0934 N/A
5:16 pm 17:16 Sunny 82 28 68 20 62 62 ESE 8 13 29.94 1014 10 16.0934 N/A
5:37 pm 17:37 Sunny 82 28 68 20 62 62 SE 8 13 29.94 1014 10 16.0934 N/A
5:56 pm 17:56 Sunny 81 27 68 20 66 66 SE 7 11 29.94 1014 10 16.0934 N/A
6:16 pm 18:16 Sunny 81 27 66 19 62 62 SE 8 13 29.91 1013 10 16.0934 N/A
6:37 pm 18:37 Sunny 81 27 68 20 66 66 ESE 8 13 29.94 1014 10 16.0934 N/A
6:56 pm 18:56 Sunny 81 27 68 20 66 66 SE 7 11 29.91 1013 10 16.0934 N/A
7:17 pm 19:17 Sunny 79 26 68 20 70 70 ESE 6 9 29.91 1013 10 16.0934 N/A
7:36 pm 19:36 Sunny 79 26 70 21 74 74 ESE 6 9 29.91 1013 10 16.0934 N/A
7:56 pm 19:56 Sunny 79 26 68 20 70 70 SE 6 9 29.91 1013 10 16.0934 N/A
8:17 pm 20:17 Sunny 75 24 68 20 78 78 SE 6 9 29.91 1013 10 16.0934 N/A
8:36 pm 20:36 Sunny 75 24 68 20 78 78 SE 6 9 29.91 1013 10 16.0934 N/A
8:57 pm 20:57 Sunny 73 23 66 19 78 78 SE 6 9 29.91 1013 10 16.0934 N/A
9:17 pm 21:17 Clear 72 22 66 19 83 83 SE 6 9 29.91 1013 10 16.0934 N/A
9:36 pm 21:36 Clear 72 22 66 19 83 83 SE 6 9 29.88 1012 10 16.0934 N/A
9:57 pm 21:57 Clear 72 22 66 19 83 83 SE 5 7 29.88 1012 10 16.0934 N/A
10:16 pm 22:16 Clear 70 21 66 19 88 88 SE 5 7 29.88 1012 10 16.0934 N/A
10:37 pm 22:37 Clear 70 21 66 19 88 88 SSE 3 6 29.91 1013 10 16.0934 N/A
10:57 pm 22:57 Clear 70 21 66 19 88 88 SSE 6 9 29.91 1013 10 16.0934 N/A
11:16 pm 23:16 Clear 70 21 66 19 88 88 SE 6 9 29.91 1013 10 16.0934 N/A
11:37 pm 23:37 Clear 70 21 66 19 88 88 SSE 5 7 29.88 1012 10 16.0934 N/A
11:56 pm 23:56 Clear 70 21 64 18 83 83 SSE 5 7 29.88 1012 10 16.0934 N/A

Powered by AerisWeather